Charleston, SC

2:44 AM EDT on September 27, 2016 (GMT -0400)
Charleston Executive

Weather History for KJZI - August, 2014

Change the Weather History Date:

Tuesday, August 12, 2014

  Actual Average (KCHS) Record (KCHS)
Temperature  
Mean Temperature 82 °F 81 °F  
Max Temperature 89 °F 90 °F 98 °F (1957)
Min Temperature 75 °F 73 °F 62 °F (1967)
Degree Days  
Heating Degree Days 0 0  
Month to date heating degree days 0  
Since 1 June heating degree days 1  
Since 1 July heating degree days 0  
Cooling Degree Days 17 16  
Month to date cooling degree days 201  
Year to date cooling degree days 1513  
Since 1 June cooling degree days 1151  
Growing Degree Days 32 (Base 50)    
Moisture  
Dew Point 78 °F    
Average Humidity 91    
Maximum Humidity 100    
Minimum Humidity 70    
Precipitation  
Precipitation 0.00 in 0.21 in 3.02 in (1943)
Month to date precipitation 2.59  
Year to date precipitation 31.08  
Sea Level Pressure  
Sea Level Pressure 29.89 in    
Wind  
Wind Speed 1 mph (SSW)    
Max Wind Speed 13 mph    
Max Gust Speed 20 mph    
Visibility 8 miles    
Events Rain , Thunderstorm    
T = Trace of Precipitation, MM = Missing Value Source: NWS Daily Summary

Daily Weather History Graph

Daily Weather History Graph

Search for Another Location

Airport or City:

Trip Planner

Search our weather history database for the weather conditions in past years. The results will help you decide how hot, cold, wet, or windy it might be!

Date:

Astronomy

Aug. 12, 2014 Rise Set
Actual Time 6:41 AM EDT 8:08 PM EDT
Civil Twilight 6:15 AM EDT 8:34 PM EDT
Nautical Twilight 5:44 AM EDT 9:05 PM EDT
Astronomical Twilight 5:11 AM EDT 9:38 PM EDT
Moon 9:26 PM EDT (8/12) 8:47 AM EDT (8/12)
Length of Visible Light 14h 18m
Length of Day
13h 26m
Waning Gibbous, 95% of the Moon is Illuminated
Aug 12
Waning Gibbous
Aug 17
Last Quarter
Aug 25
New
Sep 2
First Quarter
Sep 8
Full

Hourly Weather History & Observations

Time (EDT) Temp. Heat Index Dew Point Humidity Pressure Visibility Wind Dir Wind Speed Gust Speed Precip Events Conditions
12:35 AM 78.8 °F - 78.8 °F 100% 29.92 in 5.0 mi Calm Calm - 0.00 in   Clear
12:55 AM 77.0 °F - 77.0 °F 100% 29.92 in 5.0 mi Calm Calm - 0.00 in   Clear
1:15 AM 77.0 °F - 77.0 °F 100% 29.92 in 3.0 mi Calm Calm - 0.00 in   Clear
1:55 AM 77.0 °F - 77.0 °F 100% 29.92 in 5.0 mi Calm Calm - 0.00 in   Partly Cloudy
2:15 AM 77.0 °F - 77.0 °F 100% 29.92 in 5.0 mi Calm Calm - 0.00 in   Scattered Clouds
2:35 AM 77.0 °F - 77.0 °F 100% 29.91 in 5.0 mi Calm Calm - 0.00 in   Mostly Cloudy
2:55 AM 78.8 °F - 78.8 °F 100% 29.91 in 5.0 mi Calm Calm - 0.00 in   Mostly Cloudy
3:15 AM 78.8 °F - 78.8 °F 100% 29.90 in 6.0 mi Calm Calm - 0.00 in   Mostly Cloudy
3:35 AM 78.8 °F - 77.0 °F 94% 29.90 in 5.0 mi Calm Calm - 0.00 in   Mostly Cloudy
3:55 AM 78.8 °F - 78.8 °F 100% 29.90 in 7.0 mi Calm Calm - 0.00 in   Overcast
4:15 AM 78.8 °F - 77.0 °F 94% 29.89 in 5.0 mi Calm Calm - 0.00 in   Overcast
4:35 AM 77.0 °F - 77.0 °F 100% 29.89 in 5.0 mi Calm Calm - 0.00 in   Mostly Cloudy
4:55 AM 77.0 °F - 77.0 °F 100% 29.89 in 6.0 mi Calm Calm - 0.00 in   Clear
5:15 AM 78.8 °F - 77.0 °F 94% 29.89 in 6.0 mi Calm Calm - 0.00 in   Partly Cloudy
5:35 AM 77.0 °F - 77.0 °F 100% 29.89 in 6.0 mi Calm Calm - 0.00 in   Mostly Cloudy
5:55 AM 77.0 °F - 77.0 °F 100% 29.89 in 5.0 mi Calm Calm - 0.00 in   Overcast
6:15 AM 77.0 °F - 77.0 °F 100% 29.88 in 4.0 mi Calm Calm - 0.00 in   Mostly Cloudy
6:35 AM 77.0 °F - 77.0 °F 100% 29.88 in 5.0 mi Calm Calm - 0.00 in   Clear
6:55 AM 75.2 °F - 75.2 °F 100% 29.89 in 3.0 mi Calm Calm - 0.00 in   Clear
7:15 AM 75.2 °F - 75.2 °F 100% 29.89 in 3.0 mi Calm Calm - 0.00 in Thunderstorm Clear
7:35 AM 75.2 °F - 75.2 °F 100% 29.90 in 3.0 mi Calm Calm - 0.00 in   Clear
7:55 AM 77.0 °F - 77.0 °F 100% 29.90 in 3.0 mi Calm Calm - 0.00 in   Clear
8:15 AM 80.6 °F 87.1 °F 77.0 °F 89% 29.90 in 5.0 mi Calm Calm - 0.00 in   Clear
8:35 AM 80.6 °F 87.1 °F 77.0 °F 89% 29.90 in 8.0 mi Calm Calm - 0.00 in   Clear
8:55 AM 80.6 °F 87.1 °F 77.0 °F 89% 29.90 in 10.0 mi Calm Calm - 0.00 in   Clear
9:35 AM 84.2 °F 94.1 °F 77.0 °F 79% 29.90 in 10.0 mi Calm Calm - 0.00 in   Clear
10:15 AM 87.8 °F 102.5 °F 78.8 °F 75% 29.91 in 10.0 mi Calm Calm - 0.00 in   Clear
10:35 AM 87.8 °F 99.7 °F 77.0 °F 70% 29.91 in 10.0 mi Calm Calm - 0.00 in   Clear
10:55 AM 89.6 °F 104.7 °F 78.8 °F 70% 29.92 in 10.0 mi Calm Calm - 0.00 in   Clear
11:35 AM 87.8 °F 102.5 °F 78.8 °F 75% 29.92 in 10.0 mi Calm Calm - 0.00 in   Scattered Clouds
11:55 AM 87.8 °F 102.5 °F 78.8 °F 75% 29.92 in 10.0 mi South 3.5 mph - 0.00 in   Partly Cloudy
12:15 PM 87.8 °F 102.5 °F 78.8 °F 75% 29.92 in 10.0 mi SSE 6.9 mph - 0.00 in   Clear
1:55 PM 87.8 °F 104.9 °F 80.6 °F 79% 29.90 in 10.0 mi SSW 11.5 mph - 0.00 in   Scattered Clouds
2:35 PM 87.8 °F 102.5 °F 78.8 °F 75% 29.88 in 10.0 mi SSW 11.5 mph 17.3 mph 0.00 in   Clear
2:55 PM 87.8 °F 102.5 °F 78.8 °F 75% 29.87 in 10.0 mi South 9.2 mph 17.3 mph 0.00 in   Clear
3:15 PM 89.6 °F 104.7 °F 78.8 °F 70% 29.86 in 10.0 mi South 12.7 mph - 0.00 in   Clear
3:35 PM 89.6 °F 104.7 °F 78.8 °F 70% 29.86 in 10.0 mi SW 12.7 mph 18.4 mph 0.00 in   Clear
3:55 PM 87.8 °F 102.5 °F 78.8 °F 75% 29.86 in 10.0 mi SSW 10.4 mph 17.3 mph 0.00 in   Clear
4:35 PM 84.2 °F 96.1 °F 78.8 °F 84% 29.86 in 10.0 mi SSW 12.7 mph 19.6 mph 0.00 in   Clear
4:55 PM 84.2 °F 96.1 °F 78.8 °F 84% 29.87 in 10.0 mi SW 11.5 mph - 0.00 in   Clear
5:35 PM 82.4 °F 94.0 °F 80.6 °F 94% 29.85 in 3.0 mi Calm Calm - 0.00 in Rain , Thunderstorm Light Rain
5:55 PM 80.6 °F 89.3 °F 80.6 °F 100% 29.86 in 6.0 mi Calm Calm - 0.00 in   Overcast
6:15 PM 80.6 °F 89.3 °F 80.6 °F 100% 29.86 in 10.0 mi Calm Calm - 0.00 in   Mostly Cloudy
6:35 PM 84.2 °F 96.1 °F 78.8 °F 84% 29.84 in 10.0 mi Calm Calm - 0.00 in   Scattered Clouds
6:55 PM 84.2 °F 96.1 °F 78.8 °F 84% 29.85 in 10.0 mi SSW 9.2 mph - 0.00 in   Clear
7:15 PM 82.4 °F 92.4 °F 78.8 °F 89% 29.85 in 10.0 mi SW 8.1 mph - 0.00 in   Clear
7:55 PM 82.4 °F 94.0 °F 80.6 °F 94% 29.85 in 10.0 mi SSW 5.8 mph - 0.00 in   Clear
8:15 PM 82.4 °F 94.0 °F 80.6 °F 94% 29.86 in 10.0 mi SW 6.9 mph - 0.00 in   Clear
8:55 PM 82.4 °F 94.0 °F 80.6 °F 94% 29.86 in 10.0 mi Calm Calm - 0.00 in   Partly Cloudy
9:15 PM 82.4 °F 94.0 °F 80.6 °F 94% 29.87 in 10.0 mi Calm Calm - 0.00 in Thunderstorm Clear
9:35 PM 82.4 °F 94.0 °F 80.6 °F 94% 29.87 in 10.0 mi Calm Calm - 0.00 in Thunderstorm Clear
9:55 PM 82.4 °F 94.0 °F 80.6 °F 94% 29.87 in 10.0 mi Calm Calm - 0.00 in Thunderstorm Partly Cloudy
10:15 PM 80.6 °F 89.3 °F 80.6 °F 100% 29.88 in 9.0 mi Calm Calm - 0.00 in Thunderstorm Mostly Cloudy
10:35 PM 80.6 °F 87.1 °F 77.0 °F 89% 29.89 in 10.0 mi Calm Calm - 0.00 in Thunderstorm Thunderstorm
10:55 PM 78.8 °F - 77.0 °F 94% 29.89 in 10.0 mi Calm Calm - 0.00 in Thunderstorm Clear
11:15 PM 78.8 °F - 77.0 °F 94% 29.89 in 10.0 mi Calm Calm - 0.00 in Thunderstorm Clear
11:35 PM 78.8 °F - 77.0 °F 94% 29.89 in 10.0 mi Calm Calm - 0.00 in   Mostly Cloudy
11:55 PM 78.8 °F - 77.0 °F 94% 29.88 in 10.0 mi Calm Calm - 0.00 in   Partly Cloudy